This is the latest recevied weather packets stored in our database for station/object JQ1YUX-13. If no packets are shown the sender has not sent any weather packets the latest 10 day(s).
| Time | Temp. | Humidity | Pressure | Rain* | Wind** | Luminosity | Snow |
|---|---|---|---|---|---|---|---|
| 1777885952 | 23.33° C | 57% | 998.2 hPa | 0 mm | - | - | - |
| 1777885052 | 23.33° C | 55% | 997.5 hPa | 0 mm | - | - | - |
| 1777884152 | 23.89° C | 53% | 996.9 hPa | 0 mm | - | - | - |
| 1777883252 | 24.44° C | 50% | 996.3 hPa | 0 mm | - | - | - |
| 1777882352 | 24.44° C | 47% | 996.1 hPa | 0 mm | - | - | - |
| 1777881452 | 24.44° C | 47% | 995.7 hPa | 0 mm | - | - | - |
| 1777880553 | 24.44° C | 48% | 995.2 hPa | 0 mm | - | - | - |
| 1777879651 | 24.44° C | 54% | 995.1 hPa | 0 mm | - | - | - |
| 1777878752 | 25° C | 56% | 994.4 hPa | 0 mm | - | - | - |
| 1777877851 | 24.44° C | 59% | 994.3 hPa | 0 mm | - | - | - |
| 1777877323 | 24.44° C | 62% | 994.1 hPa | 0 mm | - | - | - |
| 1777876951 | 24.44° C | 62% | 994.1 hPa | 0 mm | - | - | - |
| 1777876052 | 24.44° C | 65% | 994 hPa | 0 mm | - | - | - |
| 1777875153 | 25° C | 65% | 993.8 hPa | 0 mm | - | - | - |
| 1777874252 | 25° C | 65% | 993.5 hPa | 0 mm | - | - | - |
| 1777873352 | 25.56° C | 63% | 993.4 hPa | 0 mm | - | - | - |
| 1777872452 | 26.11° C | 63% | 993.3 hPa | 0 mm | - | - | - |
| 1777871552 | 26.67° C | 62% | 993.3 hPa | 0 mm | - | - | - |
| 1777870651 | 26.67° C | 61% | 993.4 hPa | 0 mm | - | - | - |
| 1777869752 | 27.22° C | 61% | 993.4 hPa | 0 mm | - | - | - |
| 1777868853 | 27.22° C | 60% | 993.5 hPa | 0 mm | - | - | - |
| 1777867951 | 27.22° C | 60% | 993.6 hPa | 0 mm | - | - | - |
| 1777867052 | 27.78° C | 62% | 993.7 hPa | 0 mm | - | - | - |
| 1777866153 | 27.22° C | 61% | 994 hPa | 0 mm | - | - | - |
| 1777865251 | 27.22° C | 61% | 993.9 hPa | 0 mm | - | - | - |
* Rain latest hour (hover to see other rain measurements)
** Current wind speed in m/s (hover to see current wind gust speed)